Lid_Strength_Index
7 8 10 9 9 10 10 10 12 11 9 10 11 11 9 8 7 7 6 6 5 4 3 2 2 1 1 1 1 0 0 -0 -0 0 1 0 1 -0 -1 -1 -1 -2 -1 -1
8 10 7 9 10 10 10 11 13 11 9 10 11 11 9 8 8 6 6 6 5 4 4 3 2 2 1 1 1 0 0 -0 -0 -0 -0 -0 -0 -1 -1 -1 -1 -1 -1 -2
8 8 7 9 11 11 9 11 12 12 10 9 10 12 11 8 7 6 5 5 4 4 4 3 3 2 2 1 1 1 0 -0 -0 -1 -0 -0 -0 -0 0 -0 -0 -1 -1 -1
8 6 8 9 11 10 11 9 10 11 11 15 10 18 13 10 9 8 7 5 5 4 4 3 3 3 2 1 1 0 0 -0 -0 -1 -0 0 1 1 0 0 -0 -1 -1 -1
9 8 10 10 9 10 11 9 10 10 12 12 13 15 12 10 12 9 7 6 5 4 4 3 3 2 2 1 1 0 0 -0 -0 -0 -0 0 0 -0 0 -0 -0 -1 -1 -2
7 7 6 7 7 9 7 9 10 10 12 14 12 14 14 13 11 9 7 6 5 4 3 3 2 2 2 1 1 1 1 0 -0 -0 -0 -0 -0 0 1 1 0 -0 -1 -1
8 8 7 6 8 7 7 10 15 16 17 14 12 14 11 9 8 8 8 6 5 4 4 3 3 3 2 2 1 1 1 1 0 0 0 0 0 0 0 -0 1 0 0 -0
11 12 7 6 7 8 10 9 12 17 16 14 13 15 12 8 7 6 6 6 5 4 4 3 3 3 3 2 2 1 1 1 0 0 0 -0 -0 0 0 -0 0 0 -0 -1
10 10 7 6 6 6 9 10 8 12 12 14 14 12 9 8 8 7 7 6 6 5 4 4 3 3 2 2 2 1 1 1 1 0 0 0 -0 -0 0 -0 -1 -0 -1 -1
8 11 8 6 6 6 7 7 11 10 17 17 16 15 13 11 11 8 8 7 6 5 4 4 3 3 3 2 2 1 1 1 0 0 -0 0 -0 -0 -0 -0 -0 -0 -1 -1
7 9 9 7 8 8 8 9 9 9 11 14 17 15 10 10 9 9 7 7 6 5 4 4 4 3 3 2 2 2 1 1 1 0 0 -0 0 -0 -0 -0 -0 -0 -1 -1
7 8 10 10 8 7 7 7 8 11 14 13 14 14 8 8 8 8 8 7 6 5 5 4 4 3 2 2 2 2 1 1 1 0 0 0 -0 -0 0 0 -0 -1 -0 -1
7 10 12 11 9 8 8 9 8 9 10 13 14 14 8 8 8 7 7 7 6 5 5 4 4 4 3 3 2 2 1 1 0 0 0 0 0 0 0 -0 -0 -0 -1 -1
6 9 11 12 11 9 10 9 8 9 11 12 12 13 11 10 9 8 7 7 6 6 5 5 4 4 3 3 2 2 2 1 1 1 1 1 1 0 0 -0 -0 -0 -1 -0
7 11 9 9 9 8 10 10 9 10 9 10 11 12 11 9 9 8 7 6 6 6 6 5 5 4 3 3 2 2 2 1 1 1 1 1 0 -0 -0 -0 -0 -0 -0 -0
7 11 10 10 9 10 10 9 10 10 10 11 11 12 8 7 7 8 7 7 7 6 5 5 4 4 4 4 3 2 2 1 1 1 1 1 0 0 0 -0 -0 -0 -0 -0
9 9 11 13 10 10 11 11 11 11 10 10 12 10 8 9 8 8 7 6 6 6 5 5 6 6 6 5 4 5 4 3 3 2 1 1 2 1 0 0 0 0 0 -0
9 10 10 13 10 15 10 8 8 10 10 9 9 9 8 8 7 6 5 6 6 6 6 6 6 7 6 6 6 5 5 5 5 4 2 2 3 3 2 1 0 0 -0 0
7 9 12 14 13 11 10 9 9 10 11 8 9 8 7 8 7 8 5 5 6 5 5 6 6 6 7 7 7 7 7 6 5 5 3 3 3 3 3 3 3 2 1 1
7 7 10 12 14 15 10 7 6 7 11 8 8 8 8 7 11 8 7 6 5 4 6 6 7 7 7 8 7 8 7 7 6 5 4 4 4 3 4 3 3 2 1 1
10 10 11 12 12 11 7 7 6 12 11 7 6 7 7 8 6 5 5 6 4 4 5 7 7 7 6 6 7 7 7 7 6 6 6 5 5 5 5 5 4 4 4 3
11 11 11 11 13 14 6 6 10 7 5 6 6 6 6 5 5 5 5 5 5 6 6 5 5 6 5 5 5 6 6 5 5 5 5 4 4 4 4 4 5 5 4 4
12 9 11 10 10 7 5 6 4 5 5 5 5 5 5 5 6 5 5 6 6 5 6 6 6 6 6 6 5 6 6 5 5 5 5 5 5 4 3 3 4 3 4 4
8 7 9 10 8 7 6 4 4 4 5 4 4 4 5 5 5 5 5 6 7 6 7 6 6 6 6 5 5 5 6 5 5 5 6 6 6 5 5 5 5 5 5 4
7 7 9 9 7 6 5 4 4 4 4 4 4 4 5 5 5 5 5 6 6 7 6 6 6 6 6 6 6 6 6 6 6 7 7 7 7 7 6 7 6 6 7 7
6 8 9 9 7 6 6 4 3 4 5 4 4 4 4 4 5 6 7 7 7 6 6 6 6 6 6 6 7 7 7 6 7 8 8 9 8 8 8 8 9 11 10 11